Flag for Canada Weather past 2 weeks in Inuvik, Northwest Territories, Canada

12 °F

Snow flurries. Clear.

Feels Like: 2 °F
Forecast: 7 / 20 °F
Wind: 7 mph from Northeast

Location: Inuvik

Current Time: Oct 7, 2015 at 7:06:49 AM

Latest Report: Oct 7, 2015 at 6:00 AM

Visibility: 15 mi

Pressure: 30.13 "Hg

Humidity: 92%

Dew point: 10 °F

Location of InuvikLocation

Historic Weather in Inuvik — Graph


Inuvik temperature yesterday

Maximum temperature yesterday: 25 °F (at 12:00 AM)
Minimum temperature yesterday: 12 °F (at 11:00 PM)
Average temperature yesterday: 23 °F

Past Weeks' High & Low Weather Summary

High45 °F (Sep 28, 6:00 PM)100% (Sep 24, 5:00 AM)30.45 "Hg (Sep 24, 5:00 AM)
Low12 °F (Oct 6, 11:00 PM)60% (Sep 27, 7:00 PM)29.11 "Hg (Sep 29, 9:00 PM)
Average31 °F86%29.90 "Hg
* Reported Sep 22 6:00 AM — Oct 7 6:00 AM, Inuvik, Weather by CustomWeather, © 2015

Note: Actual official high and low records may vary slightly from our data, if they occured in-between our weather recording intervals... More about our weather records


Inuvik weather history for previous 24 hours

Time TempWeatherWind HumidityBarometerVisibility
6:00 AM
Wed, Oct 7
12 °FSnow flurries. Clear.7 mph92%30.13 "Hg15 mi
5:00 AM12 °FSnow flurries. Clear.5 mph100%30.13 "Hg10 mi
4:00 AM14 °FIce fog.6 mph100%30.14 "Hg1 mi
3:00 AM14 °FClear.6 mph92%30.13 "Hg15 mi
2:00 AM12 °FClear.3 mph92%30.13 "Hg15 mi
1:00 AM12 °FClear.6 mph92%30.12 "Hg15 mi
12:01 AM14 °FClear.6 mph92%30.12 "Hg15 mi
11:00 PM
Tue, Oct 6
12 °FPassing clouds.5 mph92%30.11 "Hg15 mi
10:00 PM14 °FPassing clouds.6 mph100%30.11 "Hg15 mi
9:00 PM16 °FPassing clouds.6 mph93%30.11 "Hg15 mi
8:00 PM19 °FPassing clouds.3 mph86%30.10 "Hg15 mi
7:00 PM21 °FPassing clouds.5 mph86%30.09 "Hg15 mi
6:00 PM23 °FPassing clouds.3 mph86%30.09 "Hg15 mi
5:00 PM25 °FScattered clouds.5 mph80%30.09 "Hg15 mi
4:00 PM23 °FPartly sunny.8 mph86%30.09 "Hg15 mi
3:00 PM25 °FBroken clouds.8 mph86%30.09 "Hg15 mi
2:00 PM23 °FScattered clouds.6 mph86%30.09 "Hg15 mi
1:00 PM23 °FMostly cloudy.8 mph93%30.09 "Hg10 mi
12:00 PM23 °FLight snow. Mostly cloudy.8 mph93%30.09 "Hg10 mi
11:00 AM25 °FLight snow. Mostly cloudy.9 mph93%30.08 "Hg2 mi
9:45 AM25 °FLight snow. Low clouds.6 mph93%30.08 "Hg2 mi
9:00 AM25 °FLight snow. Mostly cloudy.5 mph93%30.09 "Hg8 mi
8:00 AM23 °FLight snow. Mostly cloudy.3 mph100%30.10 "Hg10 mi
7:00 AM25 °FLight snow. Mostly cloudy.3 mph93%30.10 "Hg6 mi
Weather by CustomWeather, © 2015

See weather overviewHow to use our weather pages